Overview Statistics Trail Chart Weather Telemetry Raw packets
 

This is the latest recevied weather packets stored in our database for station/object KV9E. If no packets are shown the sender has not sent any weather packets the latest 10 day(s).

<< 9 10 11 12 13 14 15 >>
Time Temp. Humidity Pressure Rain* Wind** Luminosity Snow
1788552441 35° C 52% 1015.6 hPa 0 mm - 495 W/m² -
1788552136 35° C 53% 1015.5 hPa 0 mm - 511 W/m² -
1788551834 35° C 52% 1015.6 hPa 0 mm - 524 W/m² -
1788551533 34.44° C 52% 1015.7 hPa 0 mm - 555 W/m² -
1788551228 32.78° C 56% 1015.7 hPa 0 mm - 533 W/m² -
1788550927 33.33° C 55% 1016.1 hPa 0 mm - 133 W/m² -
1788550623 33.33° C 55% 1016.1 hPa 0 mm - 131 W/m² -
1788550319 35° C 54% 1016.1 hPa 0 mm - 124 W/m² -
1788550019 35.56° C 51% 1016 hPa 0 mm - 492 W/m² -
1788549709 34.44° C 51% 1016.2 hPa 0 mm - 590 W/m² -
1788549406 34.44° C 53% 1016.4 hPa 0 mm - 558 W/m² -
1788549102 34.44° C 52% 1016.5 hPa 0 mm - 560 W/m² -
1788548797 33.89° C 53% 1016.5 hPa 0 mm - 537 W/m² -
1788548493 33.89° C 53% 1016.6 hPa 0 mm - 566 W/m² -
1788548190 33.89° C 55% 1016.7 hPa 0 mm - 552 W/m² -
1788547907 33.89° C 54% 1016.7 hPa 0 mm - 560 W/m² -
1788547583 33.89° C 52% 1016.8 hPa 0 mm - 555 W/m² -
1788547279 34.44° C 52% 1017.2 hPa 0 mm - 554 W/m² -
1788546974 33.33° C 54% 1016.8 hPa 0 mm - 562 W/m² -
1788546668 33.33° C 54% 1017 hPa 0 mm - 567 W/m² -
1788546363 33.33° C 55% 1017.1 hPa 0 mm - 564 W/m² -
1788546058 32.78° C 57% 1017.2 hPa 0 mm - 571 W/m² -
1788545754 32.78° C 58% 1017.1 hPa 0 mm - 573 W/m² -
1788545448 32.78° C 60% 1017.1 hPa 0 mm - 577 W/m² -
1788545143 32.78° C 60% 1017.3 hPa 0 mm - 213 W/m² -

* Rain latest hour (hover to see other rain measurements)
** Current wind speed in m/s (hover to see current wind gust speed)